Hourly Data Report for November 02, 2019

TORONTO CITY
ONTARIO
Current Station Operator: ECCC - MSC

43°40'00.000" N
79°24'00.000" W
112.50 m
6158355
71508
XTO

Download Data

Hourly Data (November 2019)
Hourly Data Report for November 2, 2019
TIME
LST
Temp Definition
°C
Dew Point Definition
°C
Rel Hum Definition
%
Precip. Amount Definition
mm

Wind Dir Definition
10's deg

Wind Spd Definition
km/h
Visibility Definition
km
Stn Press Definition
kPa
Hmdx Definition


Wind Chill Definition


Weather Definition


00:00 3.2 -3.0 64 0.0       100.88     LegendNANA
01:00 4.2 -1.9 65 0.0       100.84     LegendNANA
02:00 4.7 -1.1 66 0.0       100.79     LegendNANA
03:00 4.8 -1.8 63 0.0       100.75     LegendNANA
04:00 5.0 -1.5 63 0.0       100.71     LegendNANA
05:00 5.2 -0.6 66 0.0       100.64     LegendNANA
06:00 5.2 1.0 74 0.0       100.57     LegendNANA
07:00 5.5 1.3 74 0.0       100.50     LegendNANA
08:00 5.8 1.9 76 0.0       100.44     LegendNANA
09:00 7.1 2.3 71 0.0       100.36     LegendNANA
10:00 7.8 2.0 67 0.0       100.27     LegendNANA
11:00 7.5 1.7 67 0.0       100.23     LegendNANA
12:00 7.2 2.3 71 0.0       100.16     LegendNANA
13:00 5.6 2.8 82 0.3       100.13     LegendNANA
14:00 5.8 2.5 79 0.4       100.13     LegendNANA
15:00 6.2 2.4 77 0.0       100.12     LegendNANA
16:00 6.3 3.0 79 0.0       100.15     LegendNANA
17:00 6.9 1.4 68 0.0       100.16     LegendNANA
18:00 6.0 0.6 68 0.0       100.18     LegendNANA
19:00 5.6 0.5 70 0.0       100.20     LegendNANA
20:00 5.1 0.2 71 0.0       100.18     LegendNANA
21:00 4.5 -0.4 70 0.0       100.12     LegendNANA
22:00 4.4 0.0 73 0.0       100.15     LegendNANA
23:00 3.7 0.1 77 0.0       100.14     LegendNANA

Notes on Data Quality.

Legend

  • E = Estimated
  • M = Missing
  • NA = Not Available*
  • [empty] = Indicates an unobserved value
Date modified: